Location: Laguna de la Cañada del Gallo
(40.3974°N, 5.2096°W)
Time: 08:31:33
(UTC+00:00)

Cosmos 1605 Rocket - Visible Passes

Search period start: 24 July 2024 00:00
Search period end: 03 August 2024 00:00
Orbit: 944 x 1005 km, 82.9° (Epoch: 23 July)

Date Brightness Start Highest point End Pass type
(mag) Time Alt. Az. Time Alt. Az. Time Alt. Az.
24 Jul 4.9 00:07:16 35° W 00:08:16 37° WNW 00:13:56 10° N visible
24 Jul 4.0 22:47:29 55° ESE 22:47:59 57° E 22:54:01 10° NNE visible
25 Jul 5.7 00:32:08 19° W 00:33:46 21° WNW 00:38:18 10° NNW visible
25 Jul 5.7 21:27:42 13° E 21:28:36 14° E 21:31:31 10° NE visible
25 Jul 3.8 23:12:20 69° SW 23:13:04 80° W 23:19:17 10° N visible
26 Jul 6.3 00:57:47 10° W 00:59:29 11° WNW 01:01:12 10° NW visible
26 Jul 5.0 21:52:32 25° E 21:53:18 26° E 21:58:16 10° NNE visible
26 Jul 4.7 23:37:10 40° WSW 23:38:19 44° WNW 23:44:14 10° N visible
27 Jul 4.2 22:17:20 45° ESE 22:18:10 48° E 22:24:04 10° NNE visible
28 Jul 5.6 00:01:58 22° W 00:03:47 25° WNW 00:08:46 10° NNW visible
28 Jul 5.8 20:57:29 10° E 20:58:54 11° ENE 21:00:36 10° ENE visible
28 Jul 3.8 22:42:07 63° S 22:43:12 87° E 22:49:26 10° N visible
29 Jul 6.2 00:26:44 11° W 00:29:27 14° WNW 00:32:24 10° NW visible
29 Jul 5.2 21:22:15 20° E 21:23:33 22° E 21:28:07 10° NE visible
29 Jul 4.5 23:06:53 43° WSW 23:08:25 52° W 23:14:29 10° N visible
30 Jul 4.5 21:46:59 35° ESE 21:48:22 40° E 21:54:06 10° NNE visible
30 Jul 5.4 23:31:37 24° WSW 23:33:49 29° WNW 23:39:10 10° NNW visible
31 Jul 3.9 22:11:42 50° SSE 22:13:22 74° E 22:19:34 10° N visible
31 Jul 6.2 23:56:20 12° W 23:59:24 16° WNW 00:03:11 10° NNW visible
01 Aug 5.4 20:51:46 16° ESE 20:53:49 18° E 20:57:53 10° NE visible
01 Aug 4.3 22:36:23 40° SW 22:38:30 63° W 22:44:43 10° N visible
02 Aug 4.7 21:16:25 26° SE 21:18:35 34° E 21:24:05 10° NNE visible
02 Aug 5.2 23:01:02 24° WSW 23:03:52 35° WNW 23:09:30 10° N visible
